Theta_e
290 286 282 286 287 287 287 285 284 287 291 290 288 290 291 294 293 293 295 296 297 299 303 305 307 305 307 307 312 315 317 320 332 332 330 331 332 334 335 337 337 337 337 337
286 283 289 290 289 288 286 284 284 288 292 290 289 289 292 293 293 294 295 295 296 297 297 301 304 306 305 305 307 310 315 318 324 334 333 334 335 336 337 338 338 339 338 338
283 287 292 290 288 287 285 284 286 286 290 290 287 285 287 291 293 294 294 295 295 295 297 302 305 306 304 305 306 307 309 316 320 331 334 332 333 333 333 335 337 339 340 339
285 289 289 286 286 288 283 291 289 288 284 278 287 277 284 288 289 291 292 292 294 299 302 303 304 304 304 306 308 307 305 310 317 327 334 334 333 332 335 336 337 338 340 341
286 286 285 285 287 291 286 291 288 287 283 280 282 278 281 287 286 288 290 295 298 299 300 301 302 303 304 306 306 308 308 308 314 321 335 334 333 335 333 331 333 334 336 340
287 290 288 288 292 291 292 287 284 282 280 275 280 279 278 282 286 289 293 297 299 299 300 300 302 303 303 305 306 309 308 309 311 318 327 335 334 331 328 329 331 332 335 338
285 285 291 293 286 288 286 280 274 273 273 274 282 279 282 288 291 291 294 296 298 298 298 298 300 301 303 305 307 309 309 308 310 316 322 333 336 333 330 331 329 332 333 337
278 278 288 292 287 283 282 281 274 270 273 273 282 277 281 289 292 296 298 298 298 297 298 300 301 302 303 305 307 308 308 307 309 312 318 325 334 335 332 331 330 333 335 337
281 281 290 291 290 288 281 279 282 277 277 273 277 281 287 290 290 295 295 296 295 297 299 300 301 303 305 307 307 308 308 308 309 313 316 323 329 332 330 329 332 333 336 338
285 280 288 290 290 289 285 287 277 275 273 272 276 278 279 285 288 290 293 294 295 297 298 300 302 304 306 309 309 308 310 309 309 313 315 323 327 330 329 330 332 334 336 339
286 282 283 286 284 282 282 280 281 279 275 270 272 276 286 287 289 290 292 294 294 297 297 300 302 305 308 309 310 311 312 312 312 314 314 323 325 327 327 330 333 336 337 339
288 282 279 283 287 289 286 283 282 275 275 278 278 279 290 289 290 293 293 296 296 298 299 301 303 306 308 309 309 309 313 319 323 321 316 321 325 327 329 331 334 336 337 339
288 281 277 279 281 285 283 286 285 282 280 279 278 279 291 291 291 293 294 295 298 299 300 301 301 302 307 308 308 308 311 315 322 324 316 321 326 328 329 331 335 336 337 338
294 282 281 277 279 281 280 285 285 283 281 280 281 283 288 290 291 292 294 296 296 299 301 302 303 304 307 307 307 307 311 313 322 326 318 322 328 330 331 333 335 336 338 337
290 282 283 285 286 287 286 286 287 284 285 282 284 284 288 291 292 293 295 296 297 298 300 301 304 305 306 305 306 308 311 313 323 329 326 325 329 332 334 335 335 337 337 337
285 282 283 282 286 287 285 287 287 287 287 286 287 286 293 294 294 293 294 296 297 298 300 303 303 304 303 305 305 308 310 315 324 332 331 333 334 335 335 335 335 336 336 335
285 285 283 279 284 284 280 285 286 287 288 286 283 288 292 292 294 294 293 296 296 298 301 300 301 303 303 305 306 307 310 318 323 331 332 332 333 333 333 334 335 334 334 334
284 283 283 280 282 274 283 290 291 288 290 290 290 292 293 293 295 295 296 295 297 298 300 300 301 302 303 306 307 308 311 320 322 327 331 333 333 332 334 335 333 333 332 332
289 285 283 280 278 282 284 288 286 285 285 290 290 292 294 294 294 295 298 299 298 299 300 301 302 303 303 304 306 308 311 321 321 319 330 331 332 331 331 331 329 330 329 327
290 289 284 284 276 272 282 289 293 290 281 291 290 291 292 293 288 292 298 299 300 300 301 301 302 303 303 304 305 307 312 319 318 319 331 329 330 329 328 327 326 329 327 323
286 285 282 282 280 281 288 293 293 281 281 290 293 294 294 293 294 297 299 299 300 300 300 302 302 301 302 304 306 307 313 318 319 322 322 330 329 326 326 325 325 325 323 321
285 283 282 283 280 277 294 291 286 288 292 295 295 297 297 297 297 298 298 297 299 299 300 301 301 301 303 304 306 308 317 319 321 320 323 328 326 326 325 323 323 323 321 318
281 288 285 286 281 291 292 292 294 294 294 295 298 299 298 296 296 297 297 297 298 298 299 301 300 301 303 305 307 309 317 321 320 321 324 325 325 325 324 323 322 321 320 318
287 290 284 284 289 289 291 294 295 296 296 298 298 296 294 292 294 294 296 297 298 299 300 301 301 301 302 306 308 312 317 321 320 318 325 325 323 322 324 323 323 322 320 319
288 288 285 284 288 291 293 295 297 297 298 296 295 294 293 295 295 296 296 298 299 300 302 303 302 302 303 306 309 312 318 323 319 317 325 324 322 321 312 307 315 323 322 320
289 288 286 286 292 291 293 298 299 298 295 294 293 294 296 296 296 296 296 298 299 300 301 302 303 304 305 307 310 315 320 321 319 318 322 322 320 317 314 314 310 295 298 299
Wind_Speed
3 5 3 6 7 2 2 2 3 4 3 5 6 10 7 6 5 8 8 7 8 7 5 3 3 7 7 6 9 9 9 9 4 3 3 3 8 9 7 8 13 12 9 9
6 2 5 4 2 3 3 1 2 5 6 6 10 20 11 7 6 7 6 7 8 8 9 6 5 5 6 7 6 8 8 10 5 5 4 4 5 8 8 6 6 11 13 13
4 5 2 3 1 3 2 3 2 4 5 6 7 11 4 1 3 4 5 5 6 6 8 9 9 8 7 7 8 7 8 10 9 8 3 1 1 2 3 4 7 12 13 12
4 3 2 2 2 3 1 4 2 2 4 2 4 10 5 5 4 3 6 5 5 7 7 7 12 11 12 11 8 9 8 8 9 9 8 12 11 10 8 8 8 6 11 11
5 3 1 2 2 2 4 1 3 2 2 3 4 3 6 5 6 6 6 7 7 8 6 9 12 14 15 13 11 10 9 9 10 9 12 11 13 10 5 4 7 6 6 7
6 2 1 2 3 3 3 3 5 4 3 3 6 4 5 2 4 4 5 7 7 8 8 9 10 11 13 14 12 8 9 13 9 9 11 15 14 9 5 5 7 5 4 5
3 2 1 2 4 4 6 6 5 6 3 6 4 4 10 10 12 7 7 8 8 7 5 7 11 15 16 17 17 12 11 16 11 10 12 13 16 13 14 9 7 7 5 4
2 6 3 1 4 5 4 7 6 6 4 5 1 10 9 8 8 5 6 7 8 9 8 7 10 11 16 20 19 15 12 17 14 12 14 13 15 11 10 9 6 8 8 8
3 5 3 1 2 6 1 3 3 0 1 2 6 8 12 10 6 5 7 6 9 7 9 13 16 12 12 17 21 17 15 17 15 15 14 13 13 14 12 13 10 9 7 7
3 3 3 1 1 3 4 5 2 3 3 6 5 8 12 10 11 5 7 9 11 7 8 10 15 17 12 16 16 18 18 19 18 16 14 13 14 14 14 10 12 11 8 10
4 3 3 1 4 7 1 0 4 4 5 4 5 7 6 5 5 7 7 9 9 10 9 9 13 12 14 17 17 19 21 21 17 14 14 14 12 13 10 11 10 10 9 11
3 4 4 9 3 4 5 7 6 5 4 4 3 16 7 7 4 6 9 12 9 9 11 9 10 14 14 17 20 19 21 20 18 15 12 14 11 11 12 12 10 11 11 11
5 1 3 7 4 4 2 4 4 2 2 8 7 12 2 3 7 11 17 10 10 10 12 9 10 12 15 16 19 20 21 22 20 15 12 11 11 13 12 12 12 12 12 12
8 6 8 8 6 4 5 8 7 6 6 7 16 27 23 18 17 14 11 8 9 11 11 10 10 12 11 15 18 21 24 23 22 15 12 13 14 15 13 12 13 14 13 14
7 8 7 10 12 8 13 16 16 14 19 14 22 21 23 18 13 8 6 7 10 14 14 12 12 12 14 17 21 21 22 25 21 11 11 12 12 12 12 11 12 12 13 12
3 4 5 5 9 11 17 18 18 21 19 19 23 25 21 13 5 6 8 9 12 14 14 10 11 11 17 19 21 22 23 25 19 9 6 8 12 13 13 14 14 13 12 12
4 4 1 8 3 5 11 13 16 11 9 6 7 9 5 7 9 6 6 10 13 14 12 12 15 9 12 19 18 23 24 22 15 6 9 11 11 12 13 14 13 13 13 14
6 5 4 6 4 6 7 3 3 6 9 7 9 11 12 16 9 7 7 11 14 14 13 13 15 12 14 11 19 21 22 15 10 7 5 9 11 11 11 11 12 11 12 14
14 6 4 4 5 7 8 3 1 4 7 4 6 8 9 7 6 13 12 10 10 14 14 14 14 15 14 14 14 17 20 9 8 10 3 6 9 11 12 12 13 12 12 12
7 8 4 3 2 5 7 1 3 3 8 3 4 7 7 7 11 14 9 6 13 15 12 15 14 17 15 17 15 16 16 5 6 7 2 5 8 11 13 13 13 11 11 9
4 3 8 4 5 8 4 4 3 2 7 1 4 14 12 12 11 17 13 14 13 11 16 16 15 17 15 14 15 16 14 6 4 2 8 6 6 9 10 12 12 11 11 10
2 3 3 3 4 7 5 2 5 7 5 11 14 14 16 16 14 15 14 10 15 16 17 17 13 15 14 12 12 14 12 2 2 5 3 6 8 9 7 13 10 12 12 12
2 3 3 4 6 5 4 9 7 6 12 9 13 14 13 13 12 17 19 19 18 18 16 14 12 14 14 13 10 12 12 3 2 2 3 9 8 9 10 12 11 10 10 10
5 1 4 5 4 7 10 9 8 6 14 10 6 9 10 13 14 17 16 16 17 15 15 13 12 13 13 11 12 12 12 7 3 4 6 12 10 10 9 8 8 9 8 8
7 4 4 6 8 10 11 11 18 17 9 6 8 9 11 15 17 16 17 16 15 16 15 14 11 11 14 12 12 14 12 8 7 3 3 11 10 11 9 8 4 7 5 9
2 3 3 5 13 14 17 18 17 15 13 8 8 11 14 15 15 17 17 15 16 16 16 15 13 12 13 11 12 16 12 14 16 5 5 7 10 9 9 9 8 17 10 11
Wind_Direction
13 74 203 243 221 169 77 228 228 259 284 354 287 286 282 262 248 274 277 282 293 287 270 306 315 313 326 319 311 308 312 289 172 178 188 194 213 213 208 221 216 186 195 183
22 224 221 262 167 177 180 217 312 306 319 343 305 292 286 239 223 209 236 273 272 321 323 331 334 322 313 306 291 300 290 286 251 204 221 221 185 213 210 209 214 185 189 187
154 244 326 29 70 158 200 157 215 232 322 297 324 294 264 318 218 225 245 251 317 301 311 315 326 315 303 304 298 282 261 264 272 243 201 130 117 121 137 184 203 203 191 182
225 265 113 356 298 123 341 196 216 261 31 290 60 286 262 232 259 282 290 308 283 294 308 304 319 322 318 308 299 296 289 277 271 252 231 219 222 218 205 209 215 193 175 189
259 191 259 283 178 154 213 39 332 307 271 15 266 268 274 322 345 318 285 278 287 287 284 306 314 318 311 313 306 296 288 273 270 250 226 228 232 232 218 148 153 182 175 174
250 245 164 197 82 80 67 26 21 50 76 7 263 176 272 169 176 255 252 277 292 311 318 316 310 311 309 309 309 296 289 286 267 256 241 230 229 216 209 169 170 172 163 176
339 347 321 108 50 29 73 52 339 347 10 223 208 296 241 264 290 215 253 286 294 300 299 310 315 314 312 309 307 301 298 289 284 255 249 231 228 216 208 202 172 162 152 189
157 321 176 171 170 192 204 151 165 235 223 237 57 248 249 216 239 216 237 267 296 305 314 314 312 301 304 306 302 292 292 293 288 276 252 235 229 225 217 202 177 181 182 189
157 271 287 166 141 123 152 165 191 156 305 330 223 289 303 280 265 256 295 285 282 298 312 321 317 316 312 310 299 290 289 286 279 268 255 237 224 219 210 200 187 182 174 159
179 286 252 272 125 74 153 164 69 12 267 269 260 258 242 287 279 279 292 291 298 303 301 311 318 314 314 322 305 291 292 281 276 271 251 232 222 213 203 189 184 174 166 154
148 150 259 322 201 195 18 42 79 118 148 206 306 260 220 235 246 273 274 281 283 291 290 304 310 308 311 327 316 306 301 289 282 269 241 223 212 201 187 190 181 173 154 159
189 154 244 235 242 261 173 196 158 135 227 216 240 268 272 259 299 314 288 291 287 274 285 295 307 311 316 322 318 313 307 295 289 271 228 209 196 180 176 172 172 163 167 166
182 230 327 332 12 359 154 182 192 181 102 222 258 262 235 315 309 300 304 295 295 292 282 283 298 314 316 320 315 314 307 299 294 278 223 197 180 176 182 180 171 163 161 163
151 179 183 218 231 159 254 242 204 200 241 258 233 276 277 287 289 289 290 281 282 283 284 267 292 308 320 314 313 314 306 304 301 274 211 194 184 177 178 175 170 163 167 158
160 213 207 236 245 249 254 260 259 239 250 245 274 272 281 288 286 273 274 280 294 310 306 306 310 318 312 317 313 313 309 306 306 246 197 192 178 163 153 161 162 156 156 156
177 244 174 256 235 245 258 255 255 253 254 254 262 271 273 280 247 265 283 298 299 297 299 300 306 319 326 314 307 310 305 299 304 231 172 155 157 146 156 161 157 151 143 147
192 184 228 274 225 314 277 247 243 242 230 206 240 258 340 268 280 269 274 283 291 292 289 309 315 327 310 290 300 302 296 290 304 236 160 143 138 147 152 150 149 146 148 148
200 169 194 273 317 245 242 239 232 220 249 244 281 288 301 304 279 262 248 257 271 284 291 308 309 301 295 270 286 288 299 290 300 313 150 138 135 146 141 142 144 144 150 151
215 181 222 224 198 298 302 2 247 172 274 228 258 287 304 317 300 281 246 246 266 290 290 292 294 294 294 280 272 276 285 267 274 324 143 134 134 137 145 148 148 145 137 131
161 180 194 204 207 240 237 229 129 153 289 207 191 259 295 317 298 291 299 278 295 285 288 299 290 294 293 292 295 294 300 294 291 12 111 129 153 150 146 141 140 134 125 108
155 192 216 233 242 278 255 179 154 79 249 223 265 308 299 287 273 287 300 294 282 285 298 294 291 290 287 288 286 286 293 289 286 297 351 126 126 122 138 125 114 118 116 113
300 290 213 212 219 262 164 73 190 226 287 314 302 300 294 296 298 289 290 272 283 289 294 286 284 286 287 282 284 290 302 304 276 143 3 124 124 126 127 117 123 117 120 116
322 231 288 226 240 262 209 235 273 266 285 287 297 310 303 301 294 291 290 290 290 294 289 286 279 281 285 286 278 280 292 280 166 285 181 130 127 128 127 129 124 118 118 125
295 337 254 8 264 276 292 283 259 260 291 298 291 288 285 288 292 291 296 294 299 292 287 285 281 282 287 285 281 277 286 278 145 318 149 122 127 121 132 121 121 124 131 128
266 307 276 263 289 316 293 292 287 292 282 276 277 268 290 294 291 292 298 289 291 289 288 287 283 286 282 285 285 288 289 280 180 109 101 129 140 126 96 67 83 129 119 146
206 238 280 278 307 292 287 289 285 285 286 283 269 289 302 287 300 301 292 292 291 291 292 290 290 280 281 282 281 282 291 277 241 162 102 147 133 123 124 120 86 41 59 95